,,,PA_Meas_PMT16A,,PR_Meas_QMR101_102,,RH_Meas_QMH101,,SR_Meas_QMS101,,TA_Meas_QMH101,,GenWind,,GenWind,
date,time,status,PA,status,PR,status,RH,status,SR,status,TA,status,DirAvg,status,SpdAvg,
2011-11-13, 00:00:04,VALID,1003.89,VALID,0,VALID,90.3183,VALID,0,VALID,25.3584,VALID,284,VALID,0.510938,
2011-11-13, 00:01:04,VALID,1003.86,VALID,0,VALID,90.2497,VALID,0,VALID,25.339,VALID,279,VALID,0.29375,
2011-11-13, 00:02:04,VALID,1003.87,VALID,0,VALID,90.2344,VALID,0,VALID,25.3176,VALID,279,VALID,0.00546875,
2011-11-13, 00:03:04,VALID,1003.83,VALID,0,VALID,90.242,VALID,0,VALID,25.3195,VALID,279,VALID,0,
2011-11-13, 00:04:04,VALID,1003.84,VALID,0,VALID,90.3793,VALID,0,VALID,25.2786,VALID,336,VALID,0.415234,
2011-11-13, 00:05:04,VALID,1003.84,VALID,0,VALID,90.4175,VALID,0,VALID,25.3,VALID,336,VALID,0.0519531,
2011-11-13, 00:06:04,VALID,1003.84,VALID,0,VALID,90.6845,VALID,0,VALID,25.2611,VALID,336,VALID,0.382422,
2011-11-13, 00:07:04,VALID,1003.81,VALID,0,VALID,90.7684,VALID,0,VALID,25.2397,VALID,335,VALID,0.347656,
2011-11-13, 00:08:04,VALID,1003.79,VALID,0,VALID,90.9057,VALID,0,VALID,25.2611,VALID,353,VALID,0.721094,
2011-11-13, 00:09:04,VALID,1003.77,VALID,0,VALID,90.9057,VALID,0,VALID,25.2611,VALID,360,VALID,0.264453,
2011-11-13, 00:10:04,VALID,1003.78,VALID,0,VALID,90.921,VALID,0,VALID,25.2416,VALID,1,VALID,0.106641,
2011-11-13, 00:11:04,VALID,1003.79,VALID,0,VALID,91.1117,VALID,0,VALID,25.2416,VALID,300,VALID,0.888281,
2011-11-13, 00:12:04,VALID,1003.75,VALID,0,VALID,90.982,VALID,0,VALID,25.263,VALID,274,VALID,0.669531,
2011-11-13, 00:13:04,VALID,1003.74,VALID,0,VALID,90.86,VALID,0,VALID,25.2397,VALID,288,VALID,0.60625,
2011-11-13, 00:14:04,VALID,1003.73,VALID,0,VALID,90.7837,VALID,0,VALID,25.2806,VALID,280,VALID,0.485938,
2011-11-13, 00:15:04,VALID,1003.71,VALID,0,VALID,90.654,VALID,0,VALID,25.2592,VALID,280,VALID,0.243359,
2011-11-13, 00:16:04,VALID,1003.69,VALID,0,VALID,90.4862,VALID,0,VALID,25.2397,VALID,281,VALID,0.220703,
2011-11-13, 00:17:04,VALID,1003.67,VALID,0,VALID,90.6769,VALID,0,VALID,25.2416,VALID,308,VALID,0.107031,
2011-11-13, 00:18:04,VALID,1003.66,VALID,0,VALID,90.7532,VALID,0,VALID,25.2416,VALID,314,VALID,0.191406,
2011-11-13, 00:19:05,VALID,1003.64,VALID,0,VALID,90.9897,VALID,0,VALID,25.2221,VALID,347,VALID,0.608594,
2011-11-13, 00:20:05,VALID,1003.62,VALID,0,VALID,91.0812,VALID,0,VALID,25.2007,VALID,345,VALID,0.872656,
2011-11-13, 00:21:05,VALID,1003.62,VALID,0,VALID,91.1193,VALID,0,VALID,25.2202,VALID,345,VALID,0.771875,
2011-11-13, 00:22:05,VALID,1003.58,VALID,0,VALID,91.0278,VALID,0,VALID,25.2611,VALID,340,VALID,0.721875,
2011-11-13, 00:23:05,VALID,1003.58,VALID,0,VALID,90.982,VALID,0,VALID,25.2202,VALID,338,VALID,0.634766,
2011-11-13, 00:24:05,VALID,1003.56,VALID,0,VALID,90.921,VALID,0,VALID,25.2592,VALID,339,VALID,0.254297,
2011-11-13, 00:25:05,VALID,1003.55,VALID,0,VALID,90.9439,VALID,0,VALID,25.2592,VALID,342,VALID,0.612891,
2011-11-13, 00:26:05,VALID,1003.53,VALID,0,VALID,90.8676,VALID,0,VALID,25.2592,VALID,332,VALID,0.845703,
2011-11-13, 00:27:05,VALID,1003.54,VALID,0,VALID,90.8447,VALID,0,VALID,25.2786,VALID,351,VALID,1.15273,
2011-11-13, 00:28:05,VALID,1003.51,VALID,0,VALID,90.776,VALID,0,VALID,25.2786,VALID,349,VALID,0.673437,
2011-11-13, 00:29:05,VALID,1003.48,VALID,0,VALID,90.7303,VALID,0,VALID,25.2786,VALID,321,VALID,0.788281,
2011-11-13, 00:30:05,VALID,1003.53,VALID,0,VALID,90.6998,VALID,0,VALID,25.2981,VALID,318,VALID,0.681641,
2011-11-13, 00:31:05,VALID,1003.51,VALID,0,VALID,90.6464,VALID,0,VALID,25.3195,VALID,309,VALID,0.291797,
2011-11-13, 00:32:05,VALID,1003.54,VALID,0,VALID,90.6769,VALID,0,VALID,25.3195,VALID,270,VALID,0.349609,
2011-11-13, 00:33:05,VALID,1003.56,VALID,0,VALID,90.6158,VALID,0,VALID,25.3,VALID,272,VALID,0.165625,
2011-11-13, 00:34:05,VALID,1003.54,VALID,0,VALID,90.6311,VALID,0,VALID,25.2592,VALID,284,VALID,0.252734,
2011-11-13, 00:35:05,VALID,1003.56,VALID,0,VALID,90.6921,VALID,0,VALID,25.2806,VALID,285,VALID,0.177344,
2011-11-13, 00:36:05,VALID,1003.55,VALID,0,VALID,90.7913,VALID,0,VALID,25.2611,VALID,325,VALID,0.257813,
2011-11-13, 00:37:05,VALID,1003.53,VALID,0,VALID,90.8829,VALID,0,VALID,25.2416,VALID,342,VALID,0.712109,
2011-11-13, 00:38:05,VALID,1003.54,VALID,0,VALID,90.8295,VALID,0,VALID,25.2611,VALID,329,VALID,0.122656,
2011-11-13, 00:39:05,VALID,1003.51,VALID,0,VALID,90.7913,VALID,0,VALID,25.2007,VALID,353,VALID,0.823828,
2011-11-13, 00:40:05,VALID,1003.54,VALID,0,VALID,90.9439,VALID,0,VALID,25.2007,VALID,351,VALID,0.707031,
2011-11-13, 00:41:05,VALID,1003.48,VALID,0,VALID,90.8905,VALID,0,VALID,25.1813,VALID,5,VALID,0.555469,
2011-11-13, 00:42:05,VALID,1003.47,VALID,0,VALID,90.9973,VALID,0,VALID,25.1813,VALID,348,VALID,0.904688,
2011-11-13, 00:43:05,VALID,1003.47,VALID,0,VALID,91.0659,VALID,0,VALID,25.2027,VALID,353,VALID,0.731641,
2011-11-13, 00:44:05,VALID,1003.46,VALID,0,VALID,91.0812,VALID,0,VALID,25.1637,VALID,349,VALID,1.06016,
2011-11-13, 00:45:05,VALID,1003.49,VALID,0,VALID,91.127,VALID,0,VALID,25.1637,VALID,344,VALID,0.73125,
2011-11-13, 00:46:05,VALID,1003.46,VALID,0,VALID,91.188,VALID,0,VALID,25.1229,VALID,340,VALID,0.494922,
2011-11-13, 00:47:05,VALID,1003.46,VALID,0,VALID,91.2948,VALID,0,VALID,25.1229,VALID,346,VALID,0.739844,
2011-11-13, 00:48:05,VALID,1003.45,VALID,0,VALID,91.2719,VALID,0,VALID,25.1229,VALID,349,VALID,0.482422,
2011-11-13, 00:49:05,VALID,1003.44,VALID,0,VALID,91.1651,VALID,0,VALID,25.1053,VALID,348,VALID,0.216797,
2011-11-13, 00:50:05,VALID,1003.45,VALID,0,VALID,91.3101,VALID,0,VALID,25.0839,VALID,348,VALID,0.232031,
2011-11-13, 00:51:05,VALID,1003.42,VALID,0,VALID,91.4016,VALID,0,VALID,25.0858,VALID,350,VALID,0.316406,
2011-11-13, 00:52:05,VALID,1003.41,VALID,0,VALID,91.5618,VALID,0,VALID,25.1053,VALID,354,VALID,0.835938,
2011-11-13, 00:53:05,VALID,1003.4,VALID,0,VALID,91.5313,VALID,0,VALID,25.1248,VALID,355,VALID,0.7,
2011-11-13, 00:54:05,VALID,1003.37,VALID,0,VALID,91.4855,VALID,0,VALID,25.1248,VALID,352,VALID,1.02227,
2011-11-13, 00:55:05,VALID,1003.35,VALID,0,VALID,91.2796,VALID,0,VALID,25.1637,VALID,346,VALID,0.911328,
2011-11-13, 00:56:05,VALID,1003.34,VALID,0,VALID,91.2338,VALID,0,VALID,25.1423,VALID,355,VALID,1.02305,
2011-11-13, 00:57:05,VALID,1003.31,VALID,0,VALID,91.1422,VALID,0,VALID,25.1813,VALID,1,VALID,1.00664,
2011-11-13, 00:58:05,VALID,1003.29,VALID,0,VALID,90.8295,VALID,0,VALID,25.1794,VALID,347,VALID,0.913281,
2011-11-13, 00:59:05,VALID,1003.26,VALID,0,VALID,90.8371,VALID,0,VALID,25.2007,VALID,349,VALID,0.811719,
2011-11-13, 01:00:05,VALID,1003.28,VALID,0,VALID,90.8447,VALID,0,VALID,25.2027,VALID,356,VALID,0.932031,
2011-11-13, 01:01:05,VALID,1003.27,VALID,0,VALID,90.8447,VALID,0,VALID,25.1813,VALID,2,VALID,0.186719,
2011-11-13, 01:02:05,VALID,1003.28,VALID,0,VALID,90.8905,VALID,0,VALID,25.2027,VALID,327,VALID,0.395312,
2011-11-13, 01:03:05,VALID,1003.21,VALID,0,VALID,90.8905,VALID,0,VALID,25.1813,VALID,358,VALID,0.689844,
2011-11-13, 01:04:05,VALID,1003.21,VALID,0,VALID,90.8905,VALID,0,VALID,25.2007,VALID,4,VALID,0.321484,
2011-11-13, 01:05:05,VALID,1003.2,VALID,0,VALID,90.7913,VALID,0,VALID,25.2221,VALID,4,VALID,0.510547,
2011-11-13, 01:06:05,VALID,1003.22,VALID,0,VALID,90.8905,VALID,0,VALID,25.1599,VALID,357,VALID,0.430859,
2011-11-13, 01:07:05,VALID,1003.2,VALID,0,VALID,90.8676,VALID,0,VALID,25.1618,VALID,357,VALID,0.322656,
2011-11-13, 01:08:05,VALID,1003.18,VALID,0,VALID,90.8829,VALID,0,VALID,25.1423,VALID,358,VALID,0.00117188,
2011-11-13, 01:09:05,VALID,1003.21,VALID,0,VALID,90.9668,VALID,0,VALID,25.1423,VALID,357,VALID,0.0472656,
2011-11-13, 01:10:05,VALID,1003.2,VALID,0,VALID,90.921,VALID,0,VALID,25.1442,VALID,357,VALID,0,
2011-11-13, 01:11:05,VALID,1003.2,VALID,0,VALID,91.2185,VALID,0,VALID,25.1248,VALID,287,VALID,0.699219,
2011-11-13, 01:12:05,VALID,1003.2,VALID,0,VALID,91.1422,VALID,0,VALID,25.1034,VALID,288,VALID,0,
2011-11-13, 01:13:05,VALID,1003.2,VALID,0,VALID,91.2872,VALID,0,VALID,25.1034,VALID,288,VALID,0.225781,
2011-11-13, 01:14:05,VALID,1003.19,VALID,0,VALID,91.1422,VALID,0,VALID,25.1034,VALID,288,VALID,0.335938,
2011-11-13, 01:15:05,VALID,1003.16,VALID,0,VALID,91.1193,VALID,0,VALID,25.1053,VALID,288,VALID,0.107422,
2011-11-13, 01:16:05,VALID,1003.19,VALID,0,VALID,91.1422,VALID,0,VALID,25.0644,VALID,288,VALID,0.252734,
2011-11-13, 01:17:05,VALID,1003.17,VALID,0,VALID,91.3177,VALID,0,VALID,25.045,VALID,344,VALID,0.332422,
2011-11-13, 01:18:05,VALID,1003.13,VALID,0,VALID,91.3864,VALID,0,VALID,25.0663,VALID,341,VALID,0.408984,
2011-11-13, 01:19:05,VALID,1003.16,VALID,0,VALID,91.3787,VALID,0,VALID,25.0469,VALID,341,VALID,0.0988281,
2011-11-13, 01:20:05,VALID,1003.16,VALID,0,VALID,91.4398,VALID,0,VALID,25.006,VALID,340,VALID,0.520703,
2011-11-13, 01:21:05,VALID,1003.17,VALID,0,VALID,91.6229,VALID,0,VALID,25.006,VALID,342,VALID,0.815625,
2011-11-13, 01:22:05,VALID,1003.16,VALID,0,VALID,91.5466,VALID,0,VALID,25.0274,VALID,345,VALID,0.582422,
2011-11-13, 01:23:05,VALID,1003.13,VALID,0,VALID,91.6152,VALID,0,VALID,25.006,VALID,347,VALID,0.444141,
2011-11-13, 01:24:05,VALID,1003.1,VALID,0,VALID,91.6152,VALID,0,VALID,24.9866,VALID,335,VALID,0.796875,
2011-11-13, 01:25:05,VALID,1003.07,VALID,0,VALID,91.6686,VALID,0,VALID,24.9866,VALID,335,VALID,0.658984,
2011-11-13, 01:26:05,VALID,1003.02,VALID,0,VALID,91.6381,VALID,0,VALID,24.9671,VALID,346,VALID,0.696875,
2011-11-13, 01:27:05,VALID,1003.02,VALID,0,VALID,91.6152,VALID,0,VALID,24.9671,VALID,347,VALID,0.513672,
2011-11-13, 01:28:05,VALID,1003.01,VALID,0,VALID,91.4855,VALID,0,VALID,24.9282,VALID,345,VALID,0.716406,
2011-11-13, 01:29:05,VALID,1002.99,VALID,0,VALID,91.7602,VALID,0,VALID,24.9282,VALID,348,VALID,0.403906,
2011-11-13, 01:30:05,VALID,1002.94,VALID,0,VALID,91.9433,VALID,0,VALID,24.93,VALID,349,VALID,0.728516,
2011-11-13, 01:31:05,VALID,1002.9,VALID,0,VALID,91.9433,VALID,0,VALID,24.9087,VALID,340,VALID,0.149219,
2011-11-13, 01:32:05,VALID,1002.9,VALID,0,VALID,91.989,VALID,0,VALID,24.9087,VALID,334,VALID,0.282031,
2011-11-13, 01:33:05,VALID,1002.88,VALID,0,VALID,91.9738,VALID,0,VALID,24.9282,VALID,334,VALID,0.280469,
2011-11-13, 01:34:05,VALID,1002.87,VALID,0,VALID,91.9738,VALID,0,VALID,24.9282,VALID,336,VALID,0.440625,
2011-11-13, 01:35:05,VALID,1002.87,VALID,0,VALID,91.9433,VALID,0,VALID,24.9087,VALID,340,VALID,0.382031,
2011-11-13, 01:36:05,VALID,1002.85,VALID,0,VALID,92.0043,VALID,0,VALID,24.9495,VALID,345,VALID,0.639844,
2011-11-13, 01:37:05,VALID,1002.86,VALID,0,VALID,91.8746,VALID,0,VALID,24.9495,VALID,345,VALID,0.2625,
2011-11-13, 01:38:05,VALID,1002.84,VALID,0,VALID,91.8517,VALID,0,VALID,24.9282,VALID,309,VALID,0.263672,
2011-11-13, 01:39:05,VALID,1002.81,VALID,0,VALID,91.8212,VALID,0,VALID,24.93,VALID,309,VALID,0.000390625,
2011-11-13, 01:40:05,VALID,1002.8,VALID,0,VALID,91.9738,VALID,0,VALID,24.93,VALID,304,VALID,0.360547,
2011-11-13, 01:41:05,VALID,1002.79,VALID,0,VALID,91.9738,VALID,0,VALID,24.93,VALID,307,VALID,0.207813,
2011-11-13, 01:42:05,VALID,1002.74,VALID,0,VALID,91.9662,VALID,0,VALID,24.9495,VALID,334,VALID,0.569922,
2011-11-13, 01:43:05,VALID,1002.75,VALID,0,VALID,91.8975,VALID,0,VALID,24.969,VALID,345,VALID,0.422656,
2011-11-13, 01:44:05,VALID,1002.73,VALID,0,VALID,91.8822,VALID,0,VALID,24.9476,VALID,350,VALID,0.587109,
2011-11-13, 01:45:05,VALID,1002.74,VALID,0,VALID,91.8136,VALID,0,VALID,24.969,VALID,347,VALID,0.501953,
2011-11-13, 01:46:05,VALID,1002.74,VALID,0,VALID,91.8365,VALID,0,VALID,24.9671,VALID,350,VALID,0.786328,
2011-11-13, 01:47:05,VALID,1002.75,VALID,0,VALID,91.661,VALID,0,VALID,24.9866,VALID,319,VALID,0.462891,
2011-11-13, 01:48:05,VALID,1002.7,VALID,0,VALID,91.6534,VALID,0,VALID,25.0274,VALID,355,VALID,0.723047,
2011-11-13, 01:49:05,VALID,1002.72,VALID,0,VALID,91.5008,VALID,0,VALID,25.0255,VALID,353,VALID,0.310156,
2011-11-13, 01:50:05,VALID,1002.71,VALID,0,VALID,91.4016,VALID,0,VALID,25.0041,VALID,297,VALID,0.522656,
2011-11-13, 01:51:05,VALID,1002.69,VALID,0,VALID,91.3711,VALID,0.0815089,VALID,25.006,VALID,296,VALID,0.197656,
2011-11-13, 01:52:05,VALID,1002.68,VALID,0,VALID,91.4855,VALID,0,VALID,24.9866,VALID,347,VALID,0.495313,
2011-11-13, 01:53:05,VALID,1002.68,VALID,0,VALID,91.4398,VALID,0.0815089,VALID,25.0255,VALID,345,VALID,0.294922,
2011-11-13, 01:54:05,VALID,1002.69,VALID,0,VALID,91.4932,VALID,0.0815089,VALID,25.006,VALID,351,VALID,0.641797,
2011-11-13, 01:55:05,VALID,1002.65,VALID,0,VALID,91.5237,VALID,0,VALID,25.0255,VALID,343,VALID,0.658594,
2011-11-13, 01:56:05,VALID,1002.66,VALID,0,VALID,91.5389,VALID,0,VALID,25.0255,VALID,348,VALID,0.789063,
2011-11-13, 01:57:05,VALID,1002.67,VALID,0,VALID,91.3558,VALID,0.0815089,VALID,25.0431,VALID,351,VALID,0.785547,
2011-11-13, 01:58:05,VALID,1002.65,VALID,0,VALID,91.188,VALID,0,VALID,25.0644,VALID,350,VALID,0.260547,
2011-11-13, 01:59:05,VALID,1002.62,VALID,0,VALID,91.2948,VALID,0.0815089,VALID,25.0644,VALID,350,VALID,0.7,
2011-11-13, 02:00:05,VALID,1002.6,VALID,0,VALID,91.2109,VALID,0.0815089,VALID,25.0839,VALID,348,VALID,0.919531,
2011-11-13, 02:01:05,VALID,1002.61,VALID,0,VALID,91.1956,VALID,0,VALID,25.082,VALID,347,VALID,0.753516,
2011-11-13, 02:02:05,VALID,1002.63,VALID,0,VALID,91.1422,VALID,0.0815089,VALID,25.1229,VALID,347,VALID,0.834375,
2011-11-13, 02:03:05,VALID,1002.6,VALID,0,VALID,90.9744,VALID,0.0815089,VALID,25.1229,VALID,345,VALID,0.595312,
2011-11-13, 02:04:05,VALID,1002.58,VALID,0,VALID,90.8752,VALID,0.0815089,VALID,25.1229,VALID,341,VALID,0.691016,
2011-11-13, 02:05:05,VALID,1002.57,VALID,0,VALID,90.9057,VALID,0.0815089,VALID,25.1034,VALID,333,VALID,0.867578,
2011-11-13, 02:06:05,VALID,1002.55,VALID,0,VALID,90.921,VALID,0,VALID,25.1248,VALID,342,VALID,0.572656,
2011-11-13, 02:07:05,VALID,1002.54,VALID,0,VALID,90.8295,VALID,0.0815089,VALID,25.1034,VALID,337,VALID,1.13437,
2011-11-13, 02:08:05,VALID,1002.55,VALID,0,VALID,90.8676,VALID,0,VALID,25.1248,VALID,249,VALID,0.640625,
2011-11-13, 02:09:05,VALID,1002.52,VALID,0,VALID,90.8295,VALID,0,VALID,25.0839,VALID,244,VALID,0.0308594,
2011-11-13, 02:10:05,VALID,1002.52,VALID,0,VALID,90.921,VALID,0,VALID,25.1053,VALID,329,VALID,0.463672,
2011-11-13, 02:11:05,VALID,1002.54,VALID,0,VALID,90.8676,VALID,0.0815089,VALID,25.0839,VALID,249,VALID,0.440234,
2011-11-13, 02:12:05,VALID,1002.5,VALID,0,VALID,90.8295,VALID,0,VALID,25.0839,VALID,325,VALID,0.579687,
2011-11-13, 02:13:05,VALID,1002.43,VALID,0,VALID,90.7837,VALID,0,VALID,25.0839,VALID,355,VALID,0.208594,
2011-11-13, 02:14:05,VALID,1002.43,VALID,0,VALID,90.86,VALID,0,VALID,25.0236,VALID,356,VALID,0.598828,
2011-11-13, 02:15:05,VALID,1002.41,VALID,0,VALID,90.7989,VALID,0,VALID,25.0858,VALID,9,VALID,0.386719,
2011-11-13, 02:16:05,VALID,1002.37,VALID,0,VALID,90.6998,VALID,0,VALID,25.0644,VALID,351,VALID,1.06484,
2011-11-13, 02:17:05,VALID,1002.37,VALID,0,VALID,90.5319,VALID,0,VALID,25.0839,VALID,353,VALID,0.170703,
2011-11-13, 02:18:05,VALID,1002.35,VALID,0,VALID,90.4633,VALID,0,VALID,25.0839,VALID,345,VALID,0.971484,
2011-11-13, 02:19:05,VALID,1002.33,VALID,0,VALID,90.2497,VALID,0.0815089,VALID,25.1229,VALID,352,VALID,0.741797,
2011-11-13, 02:20:05,VALID,1002.36,VALID,0,VALID,90.1429,VALID,0,VALID,25.1248,VALID,327,VALID,0.885547,
2011-11-13, 02:21:05,VALID,1002.35,VALID,0,VALID,89.9598,VALID,0,VALID,25.1229,VALID,330,VALID,0.182031,
2011-11-13, 02:22:05,VALID,1002.34,VALID,0,VALID,89.9521,VALID,0.0815089,VALID,25.1423,VALID,3,VALID,0.843359,
2011-11-13, 02:23:05,VALID,1002.36,VALID,0,VALID,89.6927,VALID,0.0815089,VALID,25.1637,VALID,358,VALID,0.485938,
2011-11-13, 02:24:05,VALID,1002.34,VALID,0,VALID,89.5249,VALID,0,VALID,25.2027,VALID,348,VALID,0.864453,
2011-11-13, 02:25:05,VALID,1002.34,VALID,0,VALID,89.3647,VALID,0.0815089,VALID,25.1988,VALID,340,VALID,0.790234,
2011-11-13, 02:26:05,VALID,1002.36,VALID,0,VALID,89.3342,VALID,0.0815089,VALID,25.2202,VALID,316,VALID,0.807031,
2011-11-13, 02:27:05,VALID,1002.34,VALID,0,VALID,89.2732,VALID,0,VALID,25.2202,VALID,346,VALID,0.451562,
2011-11-13, 02:28:05,VALID,1002.31,VALID,0,VALID,89.2045,VALID,0.0815089,VALID,25.2397,VALID,352,VALID,1.11992,
2011-11-13, 02:29:05,VALID,1002.34,VALID,0,VALID,88.968,VALID,0,VALID,25.2786,VALID,344,VALID,0.641797,
2011-11-13, 02:30:05,VALID,1002.31,VALID,0,VALID,88.7697,VALID,0.0815089,VALID,25.2981,VALID,350,VALID,0.88125,
2011-11-13, 02:31:05,VALID,1002.3,VALID,0,VALID,88.5713,VALID,0.0815089,VALID,25.337,VALID,341,VALID,0.296875,
2011-11-13, 02:32:05,VALID,1002.3,VALID,0,VALID,88.4645,VALID,0.0815089,VALID,25.3565,VALID,353,VALID,0.583203,
2011-11-13, 02:33:05,VALID,1002.32,VALID,0,VALID,88.3577,VALID,0.0815089,VALID,25.3351,VALID,349,VALID,0.412109,
2011-11-13, 02:34:05,VALID,1002.31,VALID,0,VALID,88.3806,VALID,0,VALID,25.376,VALID,346,VALID,0.727734,
2011-11-13, 02:35:05,VALID,1002.27,VALID,0,VALID,88.4264,VALID,0,VALID,25.3974,VALID,356,VALID,1.01836,
2011-11-13, 02:36:05,VALID,1002.27,VALID,0,VALID,88.3195,VALID,0.0815089,VALID,25.3546,VALID,354,VALID,0.613281,
2011-11-13, 02:37:05,VALID,1002.28,VALID,0,VALID,88.3577,VALID,0.0815089,VALID,25.376,VALID,345,VALID,0.655859,
2011-11-13, 02:38:05,VALID,1002.3,VALID,0,VALID,88.4111,VALID,0,VALID,25.3955,VALID,344,VALID,0.391016,
2011-11-13, 02:39:05,VALID,1002.29,VALID,0,VALID,88.4187,VALID,0,VALID,25.376,VALID,347,VALID,0.564062,
2011-11-13, 02:40:05,VALID,1002.27,VALID,0,VALID,88.3272,VALID,0,VALID,25.376,VALID,357,VALID,0.859375,
2011-11-13, 02:41:05,VALID,1002.23,VALID,0,VALID,88.1899,VALID,0,VALID,25.4149,VALID,328,VALID,0.841797,
2011-11-13, 02:42:05,VALID,1002.24,VALID,0,VALID,88.1975,VALID,0.0815089,VALID,25.4149,VALID,345,VALID,0.703516,
2011-11-13, 02:43:05,VALID,1002.24,VALID,0,VALID,88.228,VALID,0.0815089,VALID,25.3955,VALID,343,VALID,0.227734,
2011-11-13, 02:44:05,VALID,1002.24,VALID,0,VALID,88.3043,VALID,0.0815089,VALID,25.376,VALID,346,VALID,0.278516,
2011-11-13, 02:45:05,VALID,1002.25,VALID,0,VALID,88.3958,VALID,0,VALID,25.3565,VALID,302,VALID,0.417188,
2011-11-13, 02:46:05,VALID,1002.27,VALID,0,VALID,88.6247,VALID,0,VALID,25.337,VALID,332,VALID,0.346875,
2011-11-13, 02:47:05,VALID,1002.27,VALID,0,VALID,88.6476,VALID,0,VALID,25.337,VALID,346,VALID,0.172266,
2011-11-13, 02:48:05,VALID,1002.25,VALID,0,VALID,88.6781,VALID,0,VALID,25.3584,VALID,273,VALID,0.525391,
2011-11-13, 02:49:05,VALID,1002.25,VALID,0,VALID,88.6247,VALID,0,VALID,25.3176,VALID,272,VALID,0.335547,
2011-11-13, 02:50:05,VALID,1002.25,VALID,0,VALID,88.6705,VALID,0,VALID,25.2981,VALID,272,VALID,0,
2011-11-13, 02:51:05,VALID,1002.26,VALID,0,VALID,88.6705,VALID,0,VALID,25.2981,VALID,272,VALID,0,
2011-11-13, 02:52:05,VALID,1002.27,VALID,0,VALID,88.907,VALID,0,VALID,25.2786,VALID,278,VALID,0.270312,
2011-11-13, 02:53:05,VALID,1002.25,VALID,0,VALID,88.9985,VALID,0,VALID,25.2592,VALID,338,VALID,0.528906,
2011-11-13, 02:54:05,VALID,1002.22,VALID,0,VALID,89.113,VALID,0,VALID,25.2611,VALID,330,VALID,0.600391,
2011-11-13, 02:55:05,VALID,1002.23,VALID,0,VALID,89.1664,VALID,0,VALID,25.2397,VALID,342,VALID,0.426953,
2011-11-13, 02:56:05,VALID,1002.23,VALID,0,VALID,89.2045,VALID,0,VALID,25.2397,VALID,276,VALID,0.2,
2011-11-13, 02:57:05,VALID,1002.22,VALID,0,VALID,89.1206,VALID,0,VALID,25.2592,VALID,290,VALID,0.226953,
2011-11-13, 02:58:04,VALID,1002.24,VALID,0,VALID,89.1435,VALID,0,VALID,25.2786,VALID,288,VALID,0.915234,
2011-11-13, 02:59:04,VALID,1002.2,VALID,0,VALID,88.9299,VALID,0,VALID,25.3195,VALID,310,VALID,0.0824219,
2011-11-13, 03:00:04,VALID,1002.2,VALID,0,VALID,88.8765,VALID,0.0815089,VALID,25.2786,VALID,315,VALID,0.251172,
2011-11-13, 03:01:04,VALID,1002.2,VALID,0,VALID,89.0977,VALID,0,VALID,25.2572,VALID,332,VALID,0.587109,
2011-11-13, 03:02:04,VALID,1002.16,VALID,0,VALID,89.0824,VALID,0,VALID,25.2786,VALID,351,VALID,0.389453,
2011-11-13, 03:03:04,VALID,1002.18,VALID,0,VALID,88.9833,VALID,0,VALID,25.2981,VALID,315,VALID,0.324219,
2011-11-13, 03:04:04,VALID,1002.13,VALID,0,VALID,88.8307,VALID,0,VALID,25.3,VALID,341,VALID,0.45625,
2011-11-13, 03:05:04,VALID,1002.11,VALID,0,VALID,88.7468,VALID,0,VALID,25.2981,VALID,340,VALID,0.723437,
2011-11-13, 03:06:04,VALID,1002.14,VALID,0,VALID,88.6705,VALID,0,VALID,25.2962,VALID,300,VALID,0.214062,
2011-11-13, 03:07:04,VALID,1002.13,VALID,0,VALID,88.6018,VALID,0,VALID,25.2981,VALID,281,VALID,0.457812,
2011-11-13, 03:08:04,VALID,1002.14,VALID,0,VALID,88.6476,VALID,0,VALID,25.3195,VALID,313,VALID,0.453906,
2011-11-13, 03:09:04,VALID,1002.13,VALID,0,VALID,88.8002,VALID,0,VALID,25.3195,VALID,342,VALID,0.896875,
2011-11-13, 03:10:04,VALID,1002.09,VALID,0,VALID,88.8459,VALID,0,VALID,25.2981,VALID,359,VALID,0.81875,
2011-11-13, 03:11:04,VALID,1002.09,VALID,0,VALID,88.9146,VALID,0,VALID,25.3195,VALID,5,VALID,0.926953,
2011-11-13, 03:12:04,VALID,1002.06,VALID,0,VALID,88.9299,VALID,0,VALID,25.2786,VALID,358,VALID,0.619141,
2011-11-13, 03:13:04,VALID,1002.05,VALID,0,VALID,88.907,VALID,0,VALID,25.2786,VALID,340,VALID,0.422656,
2011-11-13, 03:14:04,VALID,1002.06,VALID,0,VALID,88.8917,VALID,0,VALID,25.2397,VALID,348,VALID,0.319922,
2011-11-13, 03:15:04,VALID,1002.06,VALID,0,VALID,88.9833,VALID,0,VALID,25.2397,VALID,350,VALID,0.550391,
2011-11-13, 03:16:04,VALID,1002.05,VALID,0,VALID,88.9527,VALID,0,VALID,25.2397,VALID,344,VALID,0.942578,
2011-11-13, 03:17:04,VALID,1002.07,VALID,0,VALID,89.0061,VALID,0,VALID,25.2202,VALID,345,VALID,0.766406,
2011-11-13, 03:18:04,VALID,1002.06,VALID,0,VALID,89.0214,VALID,0,VALID,25.2416,VALID,355,VALID,1.38203,
2011-11-13, 03:19:04,VALID,1002.08,VALID,0,VALID,88.9146,VALID,0,VALID,25.2611,VALID,347,VALID,0.796484,
2011-11-13, 03:20:04,VALID,1002.08,VALID,0,VALID,88.9451,VALID,0,VALID,25.2397,VALID,359,VALID,0.776172,
2011-11-13, 03:21:04,VALID,1002.08,VALID,0,VALID,88.9222,VALID,0,VALID,25.2592,VALID,347,VALID,0.566406,
2011-11-13, 03:22:04,VALID,1002.07,VALID,0,VALID,88.9527,VALID,0,VALID,25.2611,VALID,348,VALID,0.372266,
2011-11-13, 03:23:04,VALID,1002.08,VALID,0,VALID,88.9909,VALID,0,VALID,25.2397,VALID,351,VALID,0.421484,
2011-11-13, 03:24:04,VALID,1002.07,VALID,0,VALID,89.0214,VALID,0,VALID,25.2416,VALID,334,VALID,0.558203,
2011-11-13, 03:25:04,VALID,1002.07,VALID,0,VALID,89.0367,VALID,0.0815089,VALID,25.2202,VALID,342,VALID,0.624609,
2011-11-13, 03:26:04,VALID,1002.06,VALID,0,VALID,89.0061,VALID,0,VALID,25.2416,VALID,339,VALID,0.382813,
2011-11-13, 03:27:04,VALID,1002.05,VALID,0,VALID,88.907,VALID,0,VALID,25.2397,VALID,320,VALID,0.361719,
2011-11-13, 03:28:04,VALID,1002.06,VALID,0,VALID,88.8231,VALID,0,VALID,25.2611,VALID,320,VALID,0.152344,
2011-11-13, 03:29:04,VALID,1002.05,VALID,0,VALID,88.7697,VALID,0.0815089,VALID,25.2592,VALID,319,VALID,0.122656,
2011-11-13, 03:30:04,VALID,1002.06,VALID,0,VALID,88.8307,VALID,0,VALID,25.2416,VALID,348,VALID,0.701953,
2011-11-13, 03:31:04,VALID,1002.07,VALID,0,VALID,88.8307,VALID,0,VALID,25.2397,VALID,351,VALID,0.593359,
2011-11-13, 03:32:04,VALID,1002.05,VALID,0,VALID,88.8307,VALID,0,VALID,25.2416,VALID,323,VALID,0.430859,
2011-11-13, 03:33:04,VALID,1002.09,VALID,0,VALID,88.8383,VALID,0,VALID,25.2202,VALID,320,VALID,0.542188,
2011-11-13, 03:34:04,VALID,1002.08,VALID,0,VALID,88.7086,VALID,0,VALID,25.2397,VALID,328,VALID,0.125,
2011-11-13, 03:35:04,VALID,1002.05,VALID,0,VALID,88.7086,VALID,0,VALID,25.2806,VALID,277,VALID,0.544922,
2011-11-13, 03:36:04,VALID,1002.04,VALID,0,VALID,88.7391,VALID,0,VALID,25.2397,VALID,276,VALID,0.24375,
2011-11-13, 03:37:04,VALID,1002.05,VALID,0,VALID,88.7162,VALID,0,VALID,25.2397,VALID,283,VALID,0.366797,
2011-11-13, 03:38:04,VALID,1002.04,VALID,0,VALID,88.7239,VALID,0,VALID,25.2611,VALID,255,VALID,0.494531,
2011-11-13, 03:39:04,VALID,1002.01,VALID,0,VALID,88.556,VALID,0,VALID,25.2592,VALID,295,VALID,0.764063,
2011-11-13, 03:40:04,VALID,1002.04,VALID,0,VALID,88.2509,VALID,0,VALID,25.2981,VALID,303,VALID,0.957812,
2011-11-13, 03:41:04,VALID,1001.97,VALID,0,VALID,88.0296,VALID,0,VALID,25.3565,VALID,289,VALID,1.40469,
2011-11-13, 03:42:04,VALID,1002,VALID,0,VALID,87.7932,VALID,0,VALID,25.376,VALID,287,VALID,0.494922,